Location: Bonn
(50.7330°N, 7.1000°E)
Time: 17:12:55
(UTC+02:00)

Iridium 67 - Visible Passes

Search period start: 01 July 2015 00:00
Search period end: 11 July 2015 00:00
Orbit: 776 x 779 km, 86.4° (Epoch: 01 July)

Date Brightness Start Highest point End Pass type
(mag) Time Alt. Az. Time Alt. Az. Time Alt. Az.
02 Jul 7.7 04:14:08 10° NNE 04:18:29 26° ENE 04:22:54 10° SE visible
03 Jul 8.2 03:41:20 10° NNE 03:44:32 17° ENE 03:47:54 10° ESE visible
05 Jul 7.2 04:14:01 10° N 04:18:47 35° ENE 04:23:35 10° SE visible
06 Jul 7.9 03:40:57 10° NNE 03:44:55 22° ENE 03:49:00 10° ESE visible
07 Jul 8.2 03:08:26 10° NE 03:10:54 14° ENE 03:13:37 10° E visible
08 Jul 6.6 04:13:59 10° N 04:19:02 48° E 04:24:05 10° SSE visible
09 Jul 7.4 03:40:45 10° NNE 03:45:15 29° ENE 03:49:49 10° SE visible
10 Jul 8.0 03:07:49 10° NNE 03:11:20 18° ENE 03:14:59 10° ESE visible
